Regional Weather Roundup
Issued by NWS

Home | Current Version | Previous Version | Graphics & Text | Print | Product List | Glossary On
Versions: 1 2 3 4 5 6 7 8 9 10 11 12 13 14 15 16 17 18 19 20 21 22 23 24 25 26 27 28 29 30 31 32 33 34 35 36 37 38 39 40 41 42 43 44 45 46 47 48 49 50
000
ASUS45 KABQ 271710
RWRNM
NEW MEXICO REGIONAL WEATHER ROUNDUP
NATIONAL WEATHER SERVICE ALBUQUERQUE NM
1100 AM MDT WED MAY 27 2015

NOTE: "FAIR" MEANS FEW OR NO CLOUDS BELOW 12,000 FEET AGL WITH NO
       SIGNIFICANT WEATHER OR OBSTRUCTIONS TO VISION.

      THIS PRODUCT IS RELEASED AS TWO VERSIONS.  ONE VERSION NEAR
      THE TOP OF THE HOUR CONTAINING PRELIMINARY DATA FROM ALBUQUERQUE
      AND OTHER STATIONS.  A FINAL VERSION WITH ADDITIONAL DATA IS
      ISSUED ABOUT 10 MINUTES AFTER THE HOUR.

NMZ501-503-504-510>518-271800-
NORTHWEST PLATEAU/NORTHCENTRAL MOUNTAINS

CITY           SKY/WX    TMP DP  RH WIND       PRES   REMARKS
FARMINGTON     SUNNY     67  41  38 SE7       30.15F
LOS ALAMOS     SUNNY     64  37  36 SE8       30.27S
SANTA FE       SUNNY     70  38  31 SE10      30.20F
TAOS           MOSUNNY   64  37  36 NW7       30.25S
ANGEL FIRE     FAIR      60  33  36 W6G18     30.30F

$$
NMZ402-403-502-505>509-271800-
WESTCENTRAL MOUNTAINS/SOUTHWEST MOUNTAINS

CITY           SKY/WX    TMP DP  RH WIND       PRES   REMARKS
GALLUP         SUNNY     68  27  21 SW10      30.19F
GRANTS         MOSUNNY   69  31  24 E5        30.22F
SILVER CITY      N/A     77  21  12 S6        30.17F

$$
NMZ407-409-411-412-271800-
SOUTHERN DESERTS

CITY           SKY/WX    TMP DP  RH WIND       PRES   REMARKS
LORDSBURG      FAIR      77  30  18 SE5       30.10S
DEMING         PTSUNNY   79  25  13 CALM      30.10F
LAS CRUCES     PTSUNNY   80  25  13 CALM      30.11F
HOLLOMAN AFB   MOSUNNY   80  31  16 SW5       30.08F
ALAMOGORDO     MOSUNNY   82  27  13 S10G18    30.10F
T OR C         MOSUNNY   78  33  19 E7        30.12F

$$
NMZ519>523-271800-
CENTRAL VALLEYS/CENTRAL HIGHLANDS

CITY           SKY/WX    TMP DP  RH WIND       PRES   REMARKS
ALBUQUERQUE    PTSUNNY   70  40  33 SW5       30.17F
DOUBLE EAGLE   PTSUNNY   68  43  40 E3        30.20F
MORIARTY ARPT  FAIR      68  37  32 S6        30.23S
CLINES CORNERS PTSUNNY   67  34  29 VRB5      30.24F
BELEN          NOT AVBL
SOCORRO        FAIR      74  37  26 N5        30.14F

$$
NMZ524>526-539-540-271800-
SOUTHCENTRAL MOUNTAINS

CITY           SKY/WX    TMP DP  RH WIND       PRES   REMARKS
RUIDOSO        PTSUNNY   72  25  17 SE5       30.27F

$$
NMZ527>531-271800-
NORTHEAST HIGHLANDS/NORTHEAST PLAINS

CITY           SKY/WX    TMP DP  RH WIND       PRES   REMARKS
LAS VEGAS      MOSUNNY   67  40  37 S10       30.24F
RATON          MOSUNNY   67  46  47 S10       30.19S
CLAYTON        SUNNY     73  52  47 SW8       30.14S

$$
NMZ532>537-271800-
EASTCENTRAL PLAINS

CITY           SKY/WX    TMP DP  RH WIND       PRES   REMARKS
TUCUMCARI      SUNNY     79  52  38 VRB5      30.09F
CANNON AFB     SUNNY     76  61  59 S10       30.13S
CLOVIS AIRPORT SUNNY     73  61  64 S12       30.11

$$
NMZ028-029-538-271800-
SOUTHEAST PLAINS

CITY           SKY/WX    TMP DP  RH WIND       PRES   REMARKS
ROSWELL        PTSUNNY   80  54  40 SE8       30.08F
CARLSBAD       SUNNY     81  62  52 SE9       30.06F
HOBBS          SUNNY     77  64  65 SE13G18   30.11F


$$



USA.gov is the U.S. government's official web portal to all federal, state and local government web resources and services.